Tracking 19969 objects as of 12-Nov-2019
Live streaming from Space Station
objects crossing your sky now
Track the group of recently launched Starlink satellites

SL-8 DEB

Track SL-8 DEB now!
10-day predictions


NORAD ID: 39691
Int'l Code: 1991-009DE
Perigee: 1,490.7 km
Apogee: 1,696.5 km
Inclination: 74.1 °
Period: 117.9 minutes
Semi major axis: 7964 km
RCS: 0.0212 m2 (small)
Launch date: February 12, 1991
Source: Commonwealth of Independent States (former USSR) (CIS)
Launch site: PLESETSK MISSILE AND SPACE COMPLEX (PKMTR)

Note: This is SATELLITE DEBRIS
aabbcc
Your satellite tracking list
Your tracking list is empty




NASA's NSSDC Master Catalog

Two Line Element Set (TLE):
1 39691U 91009DE  19315.56231559  .00000149  00000-0  15029-2 0  9995
2 39691  74.0640   2.1844 0129155 116.0387 245.4012 12.21397946266454
Source of the keplerian elements: AFSPC